sat.trackr.live / text

‹ back to catalog

STARLINK-34691

NORAD 65691 · 2025-212R

PAYLOAD ACTIVE UNKNOWN

§ Identity

Operator
Country
US
Launch date
2025-09-21
Launch site
AFETR
Launch vehicle
Mass (kg)
RCS (m²)

Purposes: comms

External: N2YO · Heavens-Above · Gunter

§ Orbital elements

Epoch: 2026-05-24T22:37:41.763072Z

Period
94.10 min
Inclination
53.1612°
Eccentricity
0.0000762
Mean motion
15.30205873 rev/d
Perigee alt
474.7 km
Apogee alt
475.7 km
Semi-major
6,853.3 km
B*
8.3639e-4
RAAN
341.1112°
Arg perigee
58.4439°
Mean anomaly
301.6636°
Rev number
3,906

§ Raw data

STARLINK-346911 65691U 25212R   26144.94284448  .00024498  00000+0  83639-3 0  99972 65691  53.1612 341.1112 0000762  58.4439 301.6636 15.30205873 39065

JSON: /api/v1/satellites/65691 · /tle

For live sub-satellite position, see the globe view (requires WebGL).

§ Visibility from observer

Set your observer location to see the next 7 days of passes ≥ 10°. The values pass through the URL so the page stays shareable.

No JS? Fill the form by hand. The geolocation button needs JavaScript.